This is the latest recevied weather packets stored in our database for station/object N7AWM. If no packets are shown the sender has not sent any weather packets the latest 10 day(s).
| Time | Temp. | Humidity | Pressure | Rain* | Wind** | Luminosity | Snow |
|---|---|---|---|---|---|---|---|
| 1777773341 | 25.56° C | 28% | 1008.7 hPa | 0 mm | - | - | - |
| 1777772501 | 26.11° C | 28% | 1008.7 hPa | 0 mm | - | - | - |
| 1777771661 | 26.11° C | 27% | 1008.7 hPa | 0 mm | - | - | - |
| 1777770821 | 26.67° C | 29% | 1008.7 hPa | 0 mm | - | - | - |
| 1777769981 | 26.11° C | 28% | 1008.8 hPa | 0 mm | - | - | - |
| 1777769141 | 26.11° C | 26% | 1008.8 hPa | 0 mm | - | - | - |
| 1777768301 | 26.67° C | 28% | 1008.9 hPa | 0 mm | - | - | - |
| 1777767461 | 26.11° C | 30% | 1008.9 hPa | 0 mm | - | - | - |
| 1777766621 | 26.11° C | 27% | 1008.8 hPa | 0 mm | - | - | - |
| 1777765781 | 26.67° C | 28% | 1008.9 hPa | 0 mm | - | - | - |
| 1777764941 | 26.11° C | 28% | 1009.1 hPa | 0 mm | - | - | - |
| 1777764101 | 26.67° C | 27% | 1009.2 hPa | 0 mm | - | - | - |
| 1777763261 | 26.11° C | 29% | 1009.4 hPa | 0 mm | - | - | - |
| 1777762422 | 26.11° C | 29% | 1009.6 hPa | 0 mm | - | - | - |
| 1777761582 | 26.11° C | 31% | 1009.7 hPa | 0 mm | - | - | - |
| 1777760742 | 26.11° C | 29% | 1010 hPa | 0 mm | - | - | - |
| 1777759902 | 25.56° C | 29% | 1010 hPa | 0 mm | - | - | - |
| 1777759062 | 25° C | 29% | 1010.1 hPa | 0 mm | - | - | - |
| 1777758222 | 25.56° C | 30% | 1010.2 hPa | 0 mm | - | - | - |
| 1777757382 | 25.56° C | 30% | 1010.3 hPa | 0 mm | - | - | - |
| 1777756542 | 25° C | 29% | 1010.4 hPa | 0 mm | - | - | - |
| 1777755702 | 25° C | 31% | 1010.5 hPa | 0 mm | - | - | - |
| 1777754862 | 25° C | 30% | 1010.6 hPa | 0 mm | - | - | - |
| 1777754022 | 25° C | 31% | 1010.8 hPa | 0 mm | - | - | - |
| 1777753182 | 23.89° C | 33% | 1010.7 hPa | 0 mm | - | - | - |
* Rain latest hour (hover to see other rain measurements)
** Current wind speed in m/s (hover to see current wind gust speed)